SAUDISAT 2

Last updated on Sun Jun 21 2026 00:03:44 GMT+0000 (Coordinated Universal Time)

1 28371U 04025F 26170.98259415 .00000173 00000+0 49656-4 0 9995 2 28371 98.5507 171.0368 0023505 289.2174 70.6480 14.56685199166159
UTC large
Height (km)
Speed (km/s)
/
Latitude / Longitude
Inclination (degrees)
Orbital Period (minutes)
Azimuth
Elevation
Range (km)
Doppler Factor

Next 0 passes for location: London (51.5072 / 0.1276)

No passes found over London.
SAUDISAT 2